Time,TemperatureF,DewpointF,PressureIn,WindDirection,WindDirectionDegrees,WindSpeedMPH,WindSpeedGustMPH,Humidity,HourlyPrecipIn,Conditions,Clouds,dailyrainin,SoftwareType,DateUTC
2013-07-03 00:00:00,74.3,74.3,29.96,SSW,207,2.3,2.3,100,0.00,CLR,FEW,0.22,WeatherDisplay:10.37,2013-07-03 04:00:00,
2013-07-03 00:01:00,74.3,74.3,29.96,SSW,206,4.0,4.0,100,0.00,RA,FEW,0.00,WeatherDisplay:10.37,2013-07-03 04:01:00,
2013-07-03 00:03:00,74.3,74.3,29.96,SSW,207,3.5,3.5,100,0.00,RA,FEW,0.00,WeatherDisplay:10.37,2013-07-03 04:03:00,
2013-07-03 00:04:00,74.3,74.3,29.96,SSW,206,2.3,2.3,100,0.00,RA,FEW,0.00,WeatherDisplay:10.37,2013-07-03 04:04:00,
2013-07-03 00:09:00,74.2,74.2,29.95,SSW,208,7.0,7.0,100,0.00,CLR,FEW,0.00,WeatherDisplay:10.37,2013-07-03 04:09:00,
2013-07-03 00:14:00,74.3,74.3,29.95,SW,231,5.8,5.8,100,0.00,CLR,FEW,0.00,WeatherDisplay:10.37,2013-07-03 04:14:00,
2013-07-03 00:19:00,74.3,74.3,29.95,SSW,201,5.8,5.8,100,0.00,CLR,FEW,0.00,WeatherDisplay:10.37,2013-07-03 04:19:00,
2013-07-03 00:24:00,74.2,74.2,29.95,SSW,201,1.2,0.0,100,0.00,CLR,FEW,0.00,WeatherDisplay:10.37,2013-07-03 04:24:00,
2013-07-03 00:29:00,74.0,74.0,29.95,SSW,202,3.5,3.5,100,0.00,CLR,FEW,0.00,WeatherDisplay:10.37,2013-07-03 04:29:00,
2013-07-03 00:31:00,74.0,74.0,29.95,SSW,203,3.5,3.5,100,0.00,CLR,FEW,0.00,WeatherDisplay:10.37,2013-07-03 04:31:00,
2013-07-03 00:32:00,73.9,73.9,29.95,SSW,203,1.2,0.0,100,0.00,CLR,FEW,0.00,WeatherDisplay:10.37,2013-07-03 04:32:00,
2013-07-03 00:37:00,73.7,73.7,29.95,SSW,203,1.2,0.0,100,0.00,CLR,FEW,0.00,WeatherDisplay:10.37,2013-07-03 04:37:00,
2013-07-03 00:42:00,73.5,73.5,29.95,SSW,203,2.3,2.3,100,0.00,CLR,FEW,0.00,WeatherDisplay:10.37,2013-07-03 04:42:00,
2013-07-03 00:45:00,73.4,73.4,29.96,SSW,195,2.3,2.3,100,0.00,CLR,FEW,0.00,WeatherDisplay:10.37,2013-07-03 04:45:00,
2013-07-03 00:46:00,73.3,73.3,29.96,SSW,195,2.3,2.3,100,0.00,CLR,FEW,0.00,WeatherDisplay:10.37,2013-07-03 04:46:00,
2013-07-03 00:51:00,73.2,73.2,29.96,SSW,195,3.5,3.5,100,0.00,CLR,FEW,0.00,WeatherDisplay:10.37,2013-07-03 04:51:00,
2013-07-03 00:53:00,73.2,73.2,29.96,SSW,203,4.0,4.0,100,0.00,CLR,FEW,0.00,WeatherDisplay:10.37,2013-07-03 04:53:00,
2013-07-03 00:58:00,73.1,73.1,29.96,SSW,209,4.6,4.6,100,0.00,CLR,FEW,0.00,WeatherDisplay:10.37,2013-07-03 04:58:00,
2013-07-03 01:03:00,73.1,73.1,29.96,SSW,212,6.0,6.0,100,0.00,CLR,FEW,0.00,WeatherDisplay:10.37,2013-07-03 05:03:00,
2013-07-03 01:07:00,73.0,73.0,29.97,SW,219,3.5,3.5,100,0.00,CLR,FEW,0.00,WeatherDisplay:10.37,2013-07-03 05:07:00,
2013-07-03 01:12:00,73.0,73.0,29.97,SSW,206,3.5,3.5,100,0.00,CLR,FEW,0.00,WeatherDisplay:10.37,2013-07-03 05:12:00,
2013-07-03 01:17:00,73.0,73.0,29.96,SW,214,5.0,5.0,100,0.00,CLR,FEW,0.00,WeatherDisplay:10.37,2013-07-03 05:17:00,
2013-07-03 01:19:00,72.9,72.9,29.96,SW,214,4.6,4.6,100,0.00,CLR,FEW,0.00,WeatherDisplay:10.37,2013-07-03 05:19:00,
2013-07-03 01:24:00,73.0,73.0,29.97,SSW,210,3.5,3.5,100,0.00,CLR,FEW,0.00,WeatherDisplay:10.37,2013-07-03 05:24:00,
2013-07-03 01:29:00,72.9,72.9,29.96,SSW,209,4.6,4.6,100,0.00,CLR,FEW,0.00,WeatherDisplay:10.37,2013-07-03 05:29:00,
2013-07-03 01:34:00,73.0,73.0,29.97,SSW,209,5.8,5.8,100,0.00,CLR,FEW,0.00,WeatherDisplay:10.37,2013-07-03 05:34:00,
2013-07-03 01:39:00,72.9,72.9,29.96,SW,215,5.8,5.8,100,0.00,CLR,FEW,0.00,WeatherDisplay:10.37,2013-07-03 05:39:00,
2013-07-03 01:44:00,72.8,72.8,29.96,SSW,209,5.8,5.8,100,0.00,CLR,FEW,0.00,WeatherDisplay:10.37,2013-07-03 05:44:00,
2013-07-03 01:49:00,72.8,72.8,29.96,SSW,210,7.0,7.0,100,0.00,CLR,FEW,0.00,WeatherDisplay:10.37,2013-07-03 05:49:00,
2013-07-03 01:54:00,72.9,72.9,29.96,SSW,207,8.1,8.1,100,0.00,CLR,FEW,0.00,WeatherDisplay:10.37,2013-07-03 05:54:00,
2013-07-03 01:55:00,72.9,72.9,29.96,SSW,206,8.1,8.1,100,0.00,CLR,FEW,0.00,WeatherDisplay:10.37,2013-07-03 05:55:00,
2013-07-03 01:57:00,72.9,72.9,29.97,SSW,210,10.4,10.4,100,0.00,CLR,FEW,0.00,WeatherDisplay:10.37,2013-07-03 05:57:00,
2013-07-03 01:58:00,72.9,72.9,29.96,SSW,199,6.9,6.9,100,0.00,CLR,FEW,0.00,WeatherDisplay:10.37,2013-07-03 05:58:00,
2013-07-03 02:02:00,72.8,72.8,29.96,SW,217,9.2,9.2,100,0.00,CLR,FEW,0.00,WeatherDisplay:10.37,2013-07-03 06:02:00,
2013-07-03 02:07:00,72.8,72.8,29.97,SSW,205,8.1,8.1,100,0.00,CLR,FEW,0.00,WeatherDisplay:10.37,2013-07-03 06:07:00,
2013-07-03 02:12:00,72.8,72.8,29.97,SW,224,6.9,6.9,100,0.00,CLR,FEW,0.00,WeatherDisplay:10.37,2013-07-03 06:12:00,
2013-07-03 02:13:00,72.8,72.8,29.97,SW,225,9.2,9.2,100,0.00,CLR,FEW,0.00,WeatherDisplay:10.37,2013-07-03 06:13:00,
2013-07-03 02:16:00,72.8,72.8,29.97,SW,231,8.1,8.1,100,0.00,CLR,FEW,0.00,WeatherDisplay:10.37,2013-07-03 06:16:00,
2013-07-03 02:17:00,72.8,72.8,29.97,SSW,210,9.2,9.2,100,0.00,CLR,FEW,0.00,WeatherDisplay:10.37,2013-07-03 06:17:00,
2013-07-03 02:22:00,72.7,72.7,29.97,SW,225,11.5,11.5,100,0.00,CLR,FEW,0.00,WeatherDisplay:10.37,2013-07-03 06:22:00,
2013-07-03 02:24:00,72.7,72.7,29.97,SW,215,13.0,13.0,100,0.00,CLR,FEW,0.00,WeatherDisplay:10.37,2013-07-03 06:24:00,
2013-07-03 02:26:00,72.7,72.7,29.97,SW,218,8.1,8.1,100,0.00,CLR,FEW,0.00,WeatherDisplay:10.37,2013-07-03 06:26:00,
2013-07-03 02:31:00,72.7,72.7,29.97,SSW,213,9.2,9.2,100,0.00,CLR,FEW,0.00,WeatherDisplay:10.37,2013-07-03 06:31:00,
2013-07-03 02:33:00,72.6,72.6,29.97,SSW,201,8.1,8.1,100,0.00,CLR,FEW,0.00,WeatherDisplay:10.37,2013-07-03 06:33:00,
2013-07-03 02:38:00,72.6,72.6,29.96,SW,228,8.1,8.1,100,0.00,CLR,FEW,0.00,WeatherDisplay:10.37,2013-07-03 06:38:00,
2013-07-03 02:44:00,72.5,72.5,29.96,SW,222,10.4,10.4,100,0.00,CLR,FEW,0.00,WeatherDisplay:10.37,2013-07-03 06:44:00,
2013-07-03 02:49:00,72.5,72.5,29.96,SW,230,6.9,6.9,100,0.00,CLR,FEW,0.00,WeatherDisplay:10.37,2013-07-03 06:49:00,
2013-07-03 02:54:00,72.5,72.5,29.96,SW,216,8.1,8.1,100,0.00,CLR,FEW,0.00,WeatherDisplay:10.37,2013-07-03 06:54:00,
2013-07-03 02:56:00,72.5,72.5,29.97,SSW,204,7.0,7.0,100,0.00,CLR,FEW,0.00,WeatherDisplay:10.37,2013-07-03 06:56:00,
2013-07-03 03:01:00,72.5,72.5,29.96,SSW,207,6.9,6.9,100,0.00,CLR,FEW,0.00,WeatherDisplay:10.37,2013-07-03 07:01:00,
2013-07-03 03:06:00,72.5,72.5,29.96,SSW,207,6.9,6.9,100,0.00,CLR,FEW,0.00,WeatherDisplay:10.37,2013-07-03 07:06:00,
2013-07-03 03:12:00,72.5,72.5,29.96,SW,214,5.0,5.0,100,0.00,CLR,FEW,0.00,WeatherDisplay:10.37,2013-07-03 07:12:00,
2013-07-03 03:16:00,72.4,72.4,29.97,SSW,211,7.0,7.0,100,0.00,CLR,FEW,0.00,WeatherDisplay:10.37,2013-07-03 07:16:00,
2013-07-03 03:21:00,72.4,72.4,29.97,SSW,203,4.6,4.6,100,0.00,CLR,FEW,0.00,WeatherDisplay:10.37,2013-07-03 07:21:00,
2013-07-03 03:26:00,72.3,72.3,29.97,SSW,207,5.8,5.8,100,0.00,CLR,FEW,0.00,WeatherDisplay:10.37,2013-07-03 07:26:00,
2013-07-03 03:31:00,72.3,72.3,29.97,SSW,199,7.0,7.0,100,0.00,CLR,FEW,0.00,WeatherDisplay:10.37,2013-07-03 07:31:00,
2013-07-03 03:37:00,72.2,72.2,29.97,SSW,206,9.2,9.2,100,0.00,CLR,FEW,0.00,WeatherDisplay:10.37,2013-07-03 07:37:00,
2013-07-03 03:39:00,72.2,72.2,29.97,SSW,203,9.2,9.2,100,0.00,CLR,FEW,0.00,WeatherDisplay:10.37,2013-07-03 07:39:00,
2013-07-03 03:44:00,72.2,72.2,29.97,SW,215,5.8,5.8,100,0.00,CLR,FEW,0.00,WeatherDisplay:10.37,2013-07-03 07:44:00,
2013-07-03 03:50:00,72.2,72.2,29.97,SSW,211,6.0,8.0,100,0.00,CLR,FEW,0.00,WeatherDisplay:10.37,2013-07-03 07:50:00,
2013-07-03 03:55:00,72.2,72.2,29.97,SSW,213,5.0,8.0,100,0.00,CLR,FEW,0.00,WeatherDisplay:10.37,2013-07-03 07:55:00,
2013-07-03 04:00:00,72.2,72.2,29.97,SSW,213,2.0,9.0,100,0.00,CLR,FEW,0.00,WeatherDisplay:10.37,2013-07-03 08:00:00,
2013-07-03 04:01:00,72.2,72.2,29.97,SSW,203,7.0,7.0,100,0.00,CLR,FEW,0.00,WeatherDisplay:10.37,2013-07-03 08:01:00,
2013-07-03 04:07:00,72.1,72.1,29.97,SW,221,5.0,5.0,100,0.00,CLR,FEW,0.00,WeatherDisplay:10.37,2013-07-03 08:07:00,
2013-07-03 04:09:00,72.1,72.1,29.97,SSW,198,8.0,8.0,100,0.00,CLR,FEW,0.00,WeatherDisplay:10.37,2013-07-03 08:09:00,
2013-07-03 04:14:00,72.0,72.0,29.97,SSW,211,2.3,2.3,100,0.00,CLR,FEW,0.00,WeatherDisplay:10.37,2013-07-03 08:14:00,
2013-07-03 04:16:00,72.0,72.0,29.97,SSW,210,4.0,4.0,100,0.00,CLR,FEW,0.00,WeatherDisplay:10.37,2013-07-03 08:16:00,
2013-07-03 04:19:00,71.9,71.9,29.97,SSW,205,4.6,4.6,100,0.00,CLR,FEW,0.00,WeatherDisplay:10.37,2013-07-03 08:19:00,
2013-07-03 04:24:00,71.9,71.9,29.97,SSW,205,3.5,3.5,100,0.00,CLR,FEW,0.00,WeatherDisplay:10.37,2013-07-03 08:24:00,
2013-07-03 04:29:00,71.8,71.8,29.97,SSW,206,5.0,5.0,100,0.00,CLR,FEW,0.00,WeatherDisplay:10.37,2013-07-03 08:29:00,
2013-07-03 04:34:00,71.7,71.7,29.98,SSW,206,0.0,0.0,100,0.00,CLR,FEW,0.00,WeatherDisplay:10.37,2013-07-03 08:34:00,
2013-07-03 04:39:00,71.6,71.6,29.98,SSW,203,4.0,4.0,100,0.00,CLR,FEW,0.00,WeatherDisplay:10.37,2013-07-03 08:39:00,
2013-07-03 04:45:00,71.6,71.6,29.98,SSW,203,2.0,8.0,100,0.00,CLR,FEW,0.00,WeatherDisplay:10.37,2013-07-03 08:45:00,
2013-07-03 04:50:00,71.6,71.6,29.98,SW,215,5.0,5.0,100,0.00,CLR,FEW,0.00,WeatherDisplay:10.37,2013-07-03 08:50:00,
2013-07-03 04:55:00,71.5,71.5,29.98,SW,214,3.5,3.5,100,0.00,CLR,FEW,0.00,WeatherDisplay:10.37,2013-07-03 08:55:00,
2013-07-03 04:56:00,71.5,71.5,29.99,SSW,213,3.0,3.0,100,0.00,CLR,FEW,0.00,WeatherDisplay:10.37,2013-07-03 08:56:00,
2013-07-03 05:01:00,71.3,71.3,29.98,SSW,208,3.5,3.5,100,0.00,CLR,FEW,0.00,WeatherDisplay:10.37,2013-07-03 09:01:00,
2013-07-03 05:06:00,71.5,71.5,29.98,SSW,208,3.5,3.5,100,0.00,CLR,FEW,0.00,WeatherDisplay:10.37,2013-07-03 09:06:00,
2013-07-03 05:12:00,71.5,71.5,29.99,SSW,206,6.0,6.0,100,0.00,CLR,FEW,0.00,WeatherDisplay:10.37,2013-07-03 09:12:00,
2013-07-03 05:17:00,71.5,71.5,29.98,SSW,201,8.1,8.1,100,0.00,CLR,FEW,0.00,WeatherDisplay:10.37,2013-07-03 09:17:00,
2013-07-03 05:22:00,71.6,71.6,29.99,SSW,201,6.9,6.9,100,0.00,CLR,FEW,0.00,WeatherDisplay:10.37,2013-07-03 09:22:00,
2013-07-03 05:27:00,71.6,71.6,29.99,SSW,203,9.0,9.0,100,0.00,CLR,FEW,0.00,WeatherDisplay:10.37,2013-07-03 09:27:00,
2013-07-03 05:33:00,71.6,71.6,29.99,SSW,207,6.9,6.9,100,0.00,CLR,FEW,0.00,WeatherDisplay:10.37,2013-07-03 09:33:00,
2013-07-03 05:38:00,71.6,71.6,29.99,SSW,210,5.8,5.8,100,0.00,CLR,FEW,0.00,WeatherDisplay:10.37,2013-07-03 09:38:00,
2013-07-03 05:41:00,71.4,71.4,29.99,SSW,204,4.6,4.6,100,0.00,CLR,FEW,0.00,WeatherDisplay:10.37,2013-07-03 09:41:00,
2013-07-03 05:46:00,71.6,71.6,29.99,SSW,204,3.5,3.5,100,0.00,CLR,FEW,0.00,WeatherDisplay:10.37,2013-07-03 09:46:00,
2013-07-03 05:49:00,71.7,71.7,29.99,SW,216,6.9,6.9,100,0.00,CLR,FEW,0.00,WeatherDisplay:10.37,2013-07-03 09:49:00,
2013-07-03 05:51:00,71.7,71.7,30.01,SW,215,4.6,4.6,100,0.00,CLR,FEW,0.00,WeatherDisplay:10.37,2013-07-03 09:51:00,
2013-07-03 05:56:00,71.7,71.7,30.00,SSW,206,3.5,3.5,100,0.00,CLR,FEW,0.00,WeatherDisplay:10.37,2013-07-03 09:56:00,
2013-07-03 06:02:00,71.6,71.6,30.00,SSW,206,4.0,4.0,100,0.00,CLR,FEW,0.00,WeatherDisplay:10.37,2013-07-03 10:02:00,
2013-07-03 06:04:00,71.6,71.6,30.00,SSW,201,6.9,6.9,100,0.00,CLR,FEW,0.00,WeatherDisplay:10.37,2013-07-03 10:04:00,
2013-07-03 06:05:00,71.6,71.6,30.00,SSW,208,6.9,6.9,100,0.00,CLR,FEW,0.00,WeatherDisplay:10.37,2013-07-03 10:05:00,
2013-07-03 06:11:00,71.4,71.4,30.02,SSW,205,6.9,6.9,100,0.00,CLR,FEW,0.00,WeatherDisplay:10.37,2013-07-03 10:11:00,
2013-07-03 06:17:00,71.5,71.5,30.00,SSW,212,5.0,5.0,100,0.00,CLR,FEW,0.00,WeatherDisplay:10.37,2013-07-03 10:17:00,